| time (UTC) | temp F | wind direction | speed MPH | gust MPH | rain 1hr in | rain 24hr in | rain mn in | humidity % | barometer mb |
| 20260508230821 | 53 | 5 | 0.0 | 0.0 | 0.00 | 0.00 | 0.00 | 53 | 1004.4 |
| 20260508230321 | 54 | 5 | 0.0 | 0.0 | 0.00 | 0.00 | 0.00 | 54 | 1004.4 |
| 20260508225820 | 54 | 5 | 0.0 | 0.0 | 0.00 | 0.00 | 0.00 | 53 | 1004.3 |
| 20260508224820 | 56 | 5 | 0.0 | 0.0 | 0.00 | 0.00 | 0.00 | 51 | 1004.4 |
| 20260508224321 | 56 | 360 | 0.0 | 0.0 | 0.00 | 0.00 | 0.00 | 49 | 1004.4 |
| 20260508223821 | 57 | 360 | 0.0 | 0.0 | 0.00 | 0.00 | 0.00 | 50 | 1004.4 |
| 20260508223321 | 57 | 360 | 0.0 | 0.0 | 0.00 | 0.00 | 0.00 | 49 | 1004.3 |
| 20260508222821 | 58 | 360 | 0.0 | 0.0 | 0.00 | 0.00 | 0.00 | 46 | 1004.3 |
| 20260508222321 | 58 | 360 | 0.0 | 0.0 | 0.00 | 0.00 | 0.00 | 43 | 1004.4 |
| 20260508221821 | 58 | 360 | 0.0 | 0.0 | 0.00 | 0.00 | 0.00 | 45 | 1004.4 |
| 20260508221321 | 58 | 360 | 0.0 | 0.0 | 0.00 | 0.00 | 0.00 | 44 | 1004.5 |
| 20260508220821 | 58 | 360 | 0.0 | 11.0 | 0.00 | 0.00 | 0.00 | 44 | 1004.7 |
| 20260508215838 | 58 | 360 | 0.0 | 11.0 | 0.00 | 0.00 | 0.00 | 44 | 1004.7 |
| 20260508215338 | 58 | 360 | 0.0 | 11.0 | 0.00 | 0.00 | 0.00 | 42 | 1004.8 |
| 20260508214838 | 59 | 360 | 0.0 | 11.0 | 0.00 | 0.00 | 0.00 | 44 | 1004.8 |
| 20260508214338 | 59 | 360 | 0.0 | 11.0 | 0.00 | 0.00 | 0.00 | 43 | 1004.8 |
| 20260508213838 | 59 | 360 | 0.0 | 11.0 | 0.00 | 0.00 | 0.00 | 44 | 1004.9 |
| 20260508213338 | 59 | 360 | 3.0 | 11.0 | 0.00 | 0.00 | 0.00 | 45 | 1004.9 |
| 20260508212838 | 59 | 355 | 0.0 | 11.0 | 0.00 | 0.00 | 0.00 | 43 | 1005.0 |
| 20260508212338 | 59 | 360 | 0.0 | 11.0 | 0.00 | 0.00 | 0.00 | 44 | 1004.9 |
| 20260508211838 | 59 | 360 | 0.0 | 11.0 | 0.00 | 0.00 | 0.00 | 46 | 1004.9 |
| 20260508211338 | 59 | 360 | 4.0 | 11.0 | 0.00 | 0.00 | 0.00 | 45 | 1005.0 |
| 20260508210838 | 59 | 360 | 0.0 | 11.0 | 0.00 | 0.00 | 0.00 | 45 | 1005.1 |
| 20260508210338 | 59 | 360 | 2.0 | 11.0 | 0.00 | 0.00 | 0.00 | 45 | 1005.2 |
| 20260508205838 | 59 | 360 | 4.0 | 11.0 | 0.00 | 0.00 | 0.00 | 43 | 1005.3 |
| 20260508205338 | 59 | 360 | 1.0 | 11.0 | 0.00 | 0.00 | 0.00 | 43 | 1005.4 |
| 20260508204838 | 59 | 238 | 0.0 | 11.0 | 0.00 | 0.00 | 0.00 | 43 | 1005.5 |
| 20260508204338 | 59 | 360 | 2.0 | 11.0 | 0.00 | 0.00 | 0.00 | 44 | 1005.6 |
| 20260508202838 | 58 | 360 | 4.0 | 11.0 | 0.00 | 0.00 | 0.00 | 45 | 1005.7 |
| 20260508201838 | 58 | 360 | 0.0 | 11.0 | 0.00 | 0.00 | 0.00 | 46 | 1006.0 |
| 20260508200338 | 58 | 360 | 1.0 | 11.0 | 0.00 | 0.00 | 0.00 | 45 | 1006.1 |
| 20260508195838 | 58 | 360 | 1.0 | 11.0 | 0.00 | 0.00 | 0.00 | 46 | 1006.0 |
| 20260508194838 | 58 | 360 | 4.0 | 11.0 | 0.00 | 0.00 | 0.00 | 45 | 1006.3 |
| 20260508194338 | 58 | 360 | 1.0 | 11.0 | 0.00 | 0.00 | 0.00 | 47 | 1006.4 |
| 20260508193838 | 58 | 360 | 5.0 | 11.0 | 0.00 | 0.00 | 0.00 | 46 | 1006.5 |
| 20260508193338 | 58 | 360 | 3.0 | 11.0 | 0.00 | 0.00 | 0.00 | 46 | 1006.5 |
| 20260508192838 | 58 | 5 | 1.0 | 11.0 | 0.00 | 0.00 | 0.00 | 47 | 1006.6 |
| 20260508191838 | 57 | 360 | 0.0 | 11.0 | 0.00 | 0.00 | 0.00 | 49 | 1006.7 |
| 20260508191338 | 57 | 360 | 1.0 | 11.0 | 0.00 | 0.00 | 0.00 | 47 | 1006.7 |
| 20260508190838 | 57 | 360 | 9.0 | 11.0 | 0.00 | 0.00 | 0.00 | 49 | 1006.7 |
| 20260508190338 | 58 | 360 | 2.0 | 11.0 | 0.00 | 0.00 | 0.00 | 46 | 1006.9 |
| 20260508185838 | 57 | 360 | 3.0 | 11.0 | 0.00 | 0.00 | 0.00 | 45 | 1006.9 |
| 20260508185338 | 57 | 360 | 4.0 | 11.0 | 0.00 | 0.00 | 0.00 | 48 | 1006.9 |
| 20260508184838 | 57 | 360 | 4.0 | 11.0 | 0.00 | 0.00 | 0.00 | 46 | 1006.9 |
| 20260508184338 | 58 | 355 | 1.0 | 11.0 | 0.00 | 0.00 | 0.00 | 44 | 1006.9 |
| 20260508183838 | 58 | 360 | 4.0 | 11.0 | 0.00 | 0.00 | 0.00 | 45 | 1007.0 |
| 20260508183338 | 58 | 360 | 3.0 | 11.0 | 0.00 | 0.00 | 0.00 | 46 | 1007.0 |
| 20260508182838 | 58 | 360 | 2.0 | 11.0 | 0.00 | 0.00 | 0.00 | 47 | 1007.0 |
| 20260508182338 | 57 | 360 | 1.0 | 11.0 | 0.00 | 0.00 | 0.00 | 49 | 1007.0 |
| 20260508181338 | 57 | 360 | 5.0 | 11.0 | 0.00 | 0.00 | 0.00 | 46 | 1006.9 |
| 20260508180838 | 57 | 360 | 11.0 | 12.0 | 0.00 | 0.00 | 0.00 | 45 | 1007.0 |
| 20260508175823 | 57 | 360 | 8.0 | 12.0 | 0.00 | 0.00 | 0.00 | 49 | 1007.0 |
| 20260508175323 | 57 | 360 | 2.0 | 12.0 | 0.00 | 0.00 | 0.00 | 47 | 1007.0 |
| 20260508174823 | 57 | 360 | 3.0 | 12.0 | 0.00 | 0.00 | 0.00 | 48 | 1007.0 |
| 20260508174323 | 57 | 360 | 2.0 | 12.0 | 0.00 | 0.00 | 0.00 | 48 | 1007.1 |
| 20260508173823 | 57 | 360 | 8.0 | 12.0 | 0.00 | 0.00 | 0.00 | 49 | 1007.1 |
| 20260508172821 | 56 | 360 | 5.0 | 8.0 | 0.00 | 0.00 | 0.00 | 49 | 1007.3 |
| 20260508171821 | 56 | 360 | 9.0 | 8.0 | 0.00 | 0.00 | 0.00 | 49 | 1007.4 |
| 20260508171321 | 56 | 360 | 0.0 | 8.0 | 0.00 | 0.00 | 0.00 | 51 | 1007.4 |
| 20260508170821 | 56 | 360 | 6.0 | 8.0 | 0.00 | 0.00 | 0.00 | 48 | 1007.6 |
| 20260508170322 | 55 | 360 | 3.0 | 8.0 | 0.00 | 0.00 | 0.00 | 52 | 1007.5 |
| 20260508165822 | 55 | 360 | 9.0 | 8.0 | 0.00 | 0.00 | 0.00 | 50 | 1007.6 |
| 20260508165322 | 55 | 360 | 4.0 | 8.0 | 0.00 | 0.00 | 0.00 | 48 | 1007.6 |
| 20260508164821 | 55 | 360 | 2.0 | 8.0 | 0.00 | 0.00 | 0.00 | 49 | 1007.7 |
| 20260508164322 | 55 | 360 | 4.0 | 8.0 | 0.00 | 0.00 | 0.00 | 49 | 1007.7 |
| 20260508163822 | 55 | 360 | 9.0 | 8.0 | 0.00 | 0.00 | 0.00 | 48 | 1007.8 |
| 20260508163322 | 55 | 360 | 3.0 | 8.0 | 0.00 | 0.00 | 0.00 | 50 | 1007.8 |
| 20260508162821 | 55 | 360 | 0.0 | 8.0 | 0.00 | 0.00 | 0.00 | 50 | 1007.8 |
| 20260508161822 | 54 | 360 | 3.0 | 8.0 | 0.00 | 0.00 | 0.00 | 52 | 1007.9 |
| 20260508160822 | 53 | 360 | 3.0 | 8.0 | 0.00 | 0.00 | 0.00 | 54 | 1008.0 |
| 20260508160322 | 54 | 360 | 6.0 | 8.0 | 0.00 | 0.00 | 0.00 | 52 | 1008.0 |
| 20260508155821 | 54 | 360 | 6.0 | 8.0 | 0.00 | 0.00 | 0.00 | 52 | 1008.2 |
| 20260508154822 | 53 | 360 | 10.0 | 8.0 | 0.00 | 0.00 | 0.00 | 53 | 1008.2 |
| 20260508154322 | 53 | 360 | 2.0 | 8.0 | 0.00 | 0.00 | 0.00 | 54 | 1008.3 |
| 20260508153822 | 53 | 360 | 5.0 | 8.0 | 0.00 | 0.00 | 0.00 | 54 | 1008.4 |
| 20260508153322 | 52 | 360 | 4.0 | 8.0 | 0.00 | 0.00 | 0.00 | 54 | 1008.4 |
| 20260508152822 | 52 | 360 | 13.0 | 8.0 | 0.00 | 0.00 | 0.00 | 53 | 1008.4 |
| 20260508152322 | 52 | 360 | 2.0 | 8.0 | 0.00 | 0.00 | 0.00 | 54 | 1008.5 |
| 20260508151822 | 52 | 360 | 4.0 | 8.0 | 0.00 | 0.00 | 0.00 | 55 | 1008.5 |
| 20260508151322 | 52 | 360 | 3.0 | 8.0 | 0.00 | 0.00 | 0.00 | 55 | 1008.5 |
| 20260508150822 | 52 | 360 | 3.0 | 8.0 | 0.00 | 0.00 | 0.00 | 56 | 1008.5 |
| 20260508145822 | 51 | 360 | 15.0 | 8.0 | 0.00 | 0.00 | 0.00 | 57 | 1008.5 |
| 20260508145322 | 51 | 360 | 2.0 | 8.0 | 0.00 | 0.00 | 0.00 | 57 | 1008.6 |
| 20260508144822 | 51 | 360 | 5.0 | 8.0 | 0.00 | 0.00 | 0.00 | 57 | 1008.6 |
| 20260508144322 | 51 | 360 | 8.0 | 8.0 | 0.00 | 0.00 | 0.00 | 58 | 1008.6 |
| 20260508143822 | 51 | 360 | 15.0 | 8.0 | 0.00 | 0.00 | 0.00 | 61 | 1008.6 |
| 20260508143322 | 51 | 360 | 4.0 | 8.0 | 0.00 | 0.00 | 0.00 | 61 | 1008.6 |
| 20260508142822 | 50 | 360 | 5.0 | 8.0 | 0.00 | 0.00 | 0.00 | 61 | 1008.5 |
| 20260508141822 | 50 | 360 | 5.0 | 8.0 | 0.00 | 0.00 | 0.00 | 62 | 1008.7 |
| 20260508141321 | 50 | 360 | 13.0 | 8.0 | 0.00 | 0.00 | 0.00 | 63 | 1008.7 |
| 20260508140822 | 49 | 360 | 3.0 | 18.0 | 0.00 | 0.00 | 0.00 | 65 | 1008.7 |
| 20260508135824 | 48 | 360 | 13.0 | 0.0 | 0.00 | 0.00 | 0.00 | 66 | 1008.6 |
| 20260508135324 | 48 | 360 | 3.0 | 0.0 | 0.00 | 0.00 | 0.00 | 65 | 1008.8 |
| 20260508134824 | 48 | 360 | 8.0 | 0.0 | 0.00 | 0.00 | 0.00 | 66 | 1008.8 |
| 20260508134324 | 48 | 360 | 12.0 | 0.0 | 0.00 | 0.00 | 0.00 | 65 | 1008.7 |
| 20260508133824 | 48 | 360 | 10.0 | 0.0 | 0.00 | 0.00 | 0.00 | 65 | 1008.8 |
| 20260508133324 | 48 | 360 | 4.0 | 0.0 | 0.00 | 0.00 | 0.00 | 67 | 1008.8 |
| 20260508132824 | 48 | 360 | 2.0 | 0.0 | 0.00 | 0.00 | 0.00 | 66 | 1008.9 |
| 20260508132324 | 47 | 360 | 5.0 | 0.0 | 0.00 | 0.00 | 0.00 | 69 | 1009.0 |
| 20260508130824 | 45 | 360 | 3.0 | 0.0 | 0.00 | 0.00 | 0.00 | 72 | 1008.9 |
| 20260508130324 | 45 | 360 | 4.0 | 0.0 | 0.00 | 0.00 | 0.00 | 72 | 1008.9 |
| 20260508125825 | 44 | 360 | 2.0 | 0.0 | 0.00 | 0.00 | 0.00 | 76 | 1008.8 |
| 20260508125325 | 44 | 360 | 5.0 | 0.0 | 0.00 | 0.00 | 0.00 | 76 | 1009.0 |
| 20260508124824 | 43 | 360 | 4.0 | 0.0 | 0.00 | 0.00 | 0.00 | 80 | 1009.0 |
| 20260508124324 | 42 | 360 | 0.0 | 0.0 | 0.00 | 0.00 | 0.00 | 83 | 1008.9 |
| 20260508123824 | 41 | 360 | 0.0 | 0.0 | 0.00 | 0.00 | 0.00 | 84 | 1008.9 |
| 20260508123324 | 41 | 360 | 0.0 | 0.0 | 0.00 | 0.00 | 0.00 | 84 | 1008.9 |
| 20260508122825 | 40 | 360 | 0.0 | 0.0 | 0.00 | 0.00 | 0.00 | 85 | 1008.9 |
| 20260508122324 | 39 | 360 | 0.0 | 0.0 | 0.00 | 0.00 | 0.00 | 88 | 1008.9 |
| 20260508121825 | 39 | 360 | 0.0 | 0.0 | 0.00 | 0.00 | 0.00 | 89 | 1008.9 |
| 20260508121324 | 38 | 360 | 0.0 | 0.0 | 0.00 | 0.00 | 0.00 | 90 | 1008.8 |
| 20260508120324 | 37 | 360 | 0.0 | 0.0 | 0.00 | 0.00 | 0.00 | 92 | 1008.8 |
| 20260508115824 | 37 | 360 | 0.0 | 0.0 | 0.00 | 0.00 | 0.00 | 93 | 1008.7 |
| 20260508115324 | 36 | 360 | 0.0 | 0.0 | 0.00 | 0.00 | 0.00 | 93 | 1008.7 |
| 20260508114325 | 36 | 360 | 0.0 | 0.0 | 0.00 | 0.00 | 0.00 | 94 | 1008.8 |
| 20260508113324 | 35 | 360 | 0.0 | 0.0 | 0.00 | 0.00 | 0.00 | 94 | 1008.8 |
| 20260508112824 | 34 | 360 | 0.0 | 0.0 | 0.00 | 0.00 | 0.00 | 94 | 1008.6 |
| 20260508112324 | 34 | 360 | 0.0 | 0.0 | 0.00 | 0.00 | 0.00 | 94 | 1008.6 |
| 20260508111824 | 34 | 360 | 0.0 | 0.0 | 0.00 | 0.00 | 0.00 | 94 | 1008.6 |
| 20260508111324 | 33 | 360 | 0.0 | 0.0 | 0.00 | 0.00 | 0.00 | 94 | 1008.7 |
| 20260508110825 | 33 | 360 | 0.0 | 0.0 | 0.00 | 0.00 | 0.00 | 94 | 1008.7 |
| 20260508110324 | 33 | 360 | 0.0 | 0.0 | 0.00 | 0.00 | 0.00 | 94 | 1008.7 |
| 20260508105825 | 32 | 360 | 0.0 | 0.0 | 0.00 | 0.00 | 0.00 | 94 | 1008.7 |
| 20260508105324 | 32 | 360 | 0.0 | 0.0 | 0.00 | 0.00 | 0.00 | 94 | 1008.7 |
| 20260508104824 | 32 | 360 | 0.0 | 0.0 | 0.00 | 0.00 | 0.00 | 94 | 1008.7 |
| 20260508103824 | 32 | 360 | 0.0 | 0.0 | 0.00 | 0.00 | 0.00 | 93 | 1008.8 |
| 20260508103324 | 31 | 360 | 0.0 | 0.0 | 0.00 | 0.00 | 0.00 | 93 | 1008.8 |
| 20260508102324 | 32 | 360 | 0.0 | 0.0 | 0.00 | 0.00 | 0.00 | 93 | 1008.8 |
| 20260508101824 | 32 | 360 | 0.0 | 0.0 | 0.00 | 0.00 | 0.00 | 93 | 1008.8 |
| 20260508101325 | 32 | 360 | 0.0 | 0.0 | 0.00 | 0.00 | 0.00 | 92 | 1008.6 |
| 20260508100825 | 32 | 360 | 0.0 | 0.0 | 0.00 | 0.00 | 0.00 | 92 | 1008.7 |
| 20260508095840 | 32 | 360 | 0.0 | 0.0 | 0.00 | 0.00 | 0.00 | 92 | 1008.7 |
| 20260508095340 | 33 | 360 | 0.0 | 0.0 | 0.00 | 0.00 | 0.00 | 92 | 1008.8 |
| 20260508094840 | 33 | 360 | 0.0 | 0.0 | 0.00 | 0.00 | 0.00 | 93 | 1008.8 |
| 20260508093840 | 33 | 360 | 0.0 | 0.0 | 0.00 | 0.00 | 0.00 | 92 | 1008.9 |
| 20260508093340 | 33 | 360 | 0.0 | 0.0 | 0.00 | 0.00 | 0.00 | 92 | 1009.0 |
| 20260508092840 | 33 | 360 | 0.0 | 0.0 | 0.00 | 0.00 | 0.00 | 92 | 1009.1 |
| 20260508092340 | 33 | 360 | 0.0 | 0.0 | 0.00 | 0.00 | 0.00 | 92 | 1009.1 |
| 20260508091840 | 33 | 360 | 0.0 | 0.0 | 0.00 | 0.00 | 0.00 | 92 | 1009.1 |
| 20260508091340 | 33 | 360 | 0.0 | 0.0 | 0.00 | 0.00 | 0.00 | 92 | 1009.1 |
| 20260508090840 | 33 | 360 | 0.0 | 0.0 | 0.00 | 0.00 | 0.00 | 92 | 1009.2 |
| 20260508085840 | 33 | 360 | 0.0 | 0.0 | 0.00 | 0.00 | 0.00 | 92 | 1009.3 |
| 20260508085340 | 33 | 360 | 0.0 | 0.0 | 0.00 | 0.00 | 0.00 | 92 | 1009.4 |
| 20260508084840 | 33 | 360 | 0.0 | 0.0 | 0.00 | 0.00 | 0.00 | 92 | 1009.3 |
| 20260508084340 | 33 | 360 | 0.0 | 0.0 | 0.00 | 0.00 | 0.00 | 92 | 1009.4 |
| 20260508083840 | 33 | 360 | 0.0 | 0.0 | 0.00 | 0.00 | 0.00 | 91 | 1009.4 |
| 20260508083340 | 33 | 360 | 0.0 | 0.0 | 0.00 | 0.00 | 0.00 | 91 | 1009.5 |
| 20260508082840 | 33 | 360 | 0.0 | 0.0 | 0.00 | 0.00 | 0.00 | 91 | 1009.4 |
| 20260508082341 | 34 | 360 | 0.0 | 0.0 | 0.00 | 0.00 | 0.00 | 91 | 1009.5 |
| 20260508081840 | 34 | 360 | 0.0 | 0.0 | 0.00 | 0.00 | 0.00 | 91 | 1009.4 |
| 20260508081340 | 34 | 360 | 0.0 | 0.0 | 0.00 | 0.00 | 0.00 | 91 | 1009.4 |
| 20260508080840 | 34 | 360 | 0.0 | 0.0 | 0.00 | 0.00 | 0.00 | 91 | 1009.3 |
| 20260508075840 | 34 | 360 | 0.0 | 0.0 | 0.00 | 0.00 | 0.00 | 91 | 1009.3 |
| 20260508075341 | 34 | 360 | 0.0 | 0.0 | 0.00 | 0.00 | 0.00 | 92 | 1009.5 |
| 20260508074840 | 34 | 360 | 0.0 | 0.0 | 0.00 | 0.00 | 0.00 | 91 | 1009.5 |
| 20260508074340 | 34 | 360 | 0.0 | 0.0 | 0.00 | 0.00 | 0.00 | 91 | 1009.5 |
| 20260508073840 | 34 | 360 | 0.0 | 0.0 | 0.00 | 0.00 | 0.00 | 92 | 1009.5 |
| 20260508073340 | 34 | 360 | 0.0 | 0.0 | 0.00 | 0.00 | 0.00 | 91 | 1009.5 |
| 20260508072340 | 34 | 360 | 0.0 | 0.0 | 0.00 | 0.00 | 0.00 | 90 | 1009.9 |
| 20260508071340 | 34 | 360 | 0.0 | 0.0 | 0.00 | 0.00 | 0.00 | 89 | 1009.6 |
| 20260508070840 | 34 | 360 | 0.0 | 0.0 | 0.00 | 0.00 | 0.00 | 89 | 1009.7 |
| 20260508070340 | 34 | 360 | 0.0 | 0.0 | 0.00 | 0.00 | 0.00 | 89 | 1009.7 |
| 20260508065841 | 34 | 360 | 0.0 | 0.0 | 0.00 | 0.00 | 0.00 | 89 | 1009.7 |
| 20260508065340 | 34 | 360 | 0.0 | 0.0 | 0.00 | 0.00 | 0.00 | 89 | 1009.9 |
| 20260508064840 | 34 | 360 | 0.0 | 0.0 | 0.00 | 0.00 | 0.00 | 89 | 1009.9 |
| 20260508064340 | 34 | 360 | 0.0 | 0.0 | 0.00 | 0.00 | 0.00 | 89 | 1010.0 |
| 20260508063840 | 34 | 360 | 0.0 | 0.0 | 0.00 | 0.00 | 0.00 | 89 | 1010.1 |
| 20260508063340 | 33 | 360 | 0.0 | 0.0 | 0.00 | 0.00 | 0.00 | 89 | 1010.2 |
| 20260508062340 | 33 | 360 | 0.0 | 0.0 | 0.00 | 0.00 | 0.00 | 90 | 1010.3 |
| 20260508061840 | 33 | 360 | 0.0 | 0.0 | 0.00 | 0.00 | 0.00 | 90 | 1010.4 |
| 20260508061341 | 32 | 360 | 0.0 | 0.0 | 0.00 | 0.00 | 0.00 | 91 | 1010.4 |
| 20260508060840 | 32 | 360 | 0.0 | 0.0 | 0.00 | 0.00 | 0.00 | 90 | 1010.4 |
| 20260508055835 | 32 | 360 | 0.0 | 0.0 | 0.00 | 0.00 | 0.00 | 90 | 1010.4 |
| 20260508054835 | 32 | 360 | 0.0 | 0.0 | 0.00 | 0.00 | 0.00 | 90 | 1010.1 |
| 20260508053835 | 32 | 360 | 0.0 | 0.0 | 0.00 | 0.00 | 0.00 | 89 | 1010.1 |
| 20260508053335 | 32 | 360 | 0.0 | 0.0 | 0.00 | 0.00 | 0.00 | 88 | 1010.2 |
| 20260508052835 | 32 | 360 | 0.0 | 0.0 | 0.00 | 0.00 | 0.00 | 88 | 1010.2 |
| 20260508052335 | 32 | 360 | 0.0 | 0.0 | 0.00 | 0.00 | 0.00 | 88 | 1010.3 |
| 20260508051835 | 32 | 360 | 0.0 | 0.0 | 0.00 | 0.00 | 0.00 | 88 | 1010.3 |
| 20260508051335 | 32 | 360 | 0.0 | 0.0 | 0.00 | 0.00 | 0.00 | 87 | 1010.3 |
| 20260508050835 | 33 | 360 | 0.0 | 0.0 | 0.00 | 0.00 | 0.00 | 87 | 1010.3 |
| 20260508045335 | 33 | 360 | 0.0 | 0.0 | 0.00 | 0.00 | 0.00 | 85 | 1010.5 |
| 20260508044835 | 33 | 360 | 0.0 | 0.0 | 0.00 | 0.00 | 0.00 | 86 | 1010.4 |
| 20260508044335 | 34 | 360 | 0.0 | 0.0 | 0.00 | 0.00 | 0.00 | 85 | 1010.4 |
| 20260508043835 | 34 | 360 | 0.0 | 0.0 | 0.00 | 0.00 | 0.00 | 85 | 1010.4 |
| 20260508043335 | 34 | 360 | 0.0 | 0.0 | 0.00 | 0.00 | 0.00 | 84 | 1010.3 |
| 20260508042835 | 34 | 360 | 0.0 | 0.0 | 0.00 | 0.00 | 0.00 | 84 | 1010.4 |
| 20260508042335 | 35 | 360 | 0.0 | 0.0 | 0.00 | 0.00 | 0.00 | 84 | 1010.3 |
| 20260508041835 | 35 | 360 | 0.0 | 0.0 | 0.00 | 0.00 | 0.00 | 84 | 1010.3 |
| 20260508040835 | 36 | 360 | 0.0 | 0.0 | 0.00 | 0.00 | 0.00 | 83 | 1010.5 |
| 20260508035835 | 36 | 360 | 0.0 | 0.0 | 0.00 | 0.00 | 0.00 | 83 | 1010.4 |
| 20260508035335 | 37 | 360 | 0.0 | 0.0 | 0.00 | 0.00 | 0.00 | 83 | 1010.5 |
| 20260508034835 | 37 | 360 | 0.0 | 0.0 | 0.00 | 0.00 | 0.00 | 82 | 1010.5 |
| 20260508034335 | 37 | 360 | 0.0 | 0.0 | 0.00 | 0.00 | 0.00 | 82 | 1010.5 |
| 20260508033835 | 37 | 360 | 0.0 | 0.0 | 0.00 | 0.00 | 0.00 | 82 | 1010.5 |
| 20260508033335 | 37 | 360 | 0.0 | 0.0 | 0.00 | 0.00 | 0.00 | 82 | 1010.5 |
| 20260508032835 | 38 | 360 | 0.0 | 0.0 | 0.00 | 0.00 | 0.00 | 81 | 1010.5 |
| 20260508032335 | 38 | 360 | 0.0 | 0.0 | 0.00 | 0.00 | 0.00 | 81 | 1010.5 |
| 20260508031835 | 38 | 360 | 0.0 | 0.0 | 0.00 | 0.00 | 0.00 | 81 | 1010.5 |
| 20260508031335 | 38 | 360 | 0.0 | 0.0 | 0.00 | 0.00 | 0.00 | 80 | 1010.5 |
| 20260508030835 | 38 | 360 | 0.0 | 0.0 | 0.00 | 0.00 | 0.00 | 78 | 1010.5 |
| 20260508030335 | 39 | 360 | 0.0 | 0.0 | 0.00 | 0.00 | 0.00 | 78 | 1010.5 |
| 20260508025835 | 39 | 360 | 0.0 | 0.0 | 0.00 | 0.00 | 0.00 | 77 | 1010.5 |
| 20260508025335 | 39 | 360 | 0.0 | 0.0 | 0.00 | 0.00 | 0.00 | 77 | 1010.4 |
| 20260508023835 | 40 | 360 | 0.0 | 0.0 | 0.00 | 0.00 | 0.00 | 76 | 1010.5 |
| 20260508022835 | 40 | 360 | 0.0 | 0.0 | 0.00 | 0.00 | 0.00 | 76 | 1010.4 |
| 20260508022335 | 40 | 360 | 0.0 | 0.0 | 0.00 | 0.00 | 0.00 | 76 | 1010.5 |
| 20260508021835 | 40 | 360 | 0.0 | 0.0 | 0.00 | 0.00 | 0.00 | 75 | 1010.4 |
| 20260508021335 | 40 | 360 | 0.0 | 0.0 | 0.00 | 0.00 | 0.00 | 74 | 1010.4 |
| 20260508020835 | 40 | 360 | 0.0 | 5.0 | 0.00 | 0.00 | 0.00 | 74 | 1010.5 |
| 20260508015329 | 41 | 360 | 0.0 | 5.0 | 0.00 | 0.00 | 0.00 | 72 | 1010.4 |
| 20260508014829 | 41 | 360 | 0.0 | 5.0 | 0.00 | 0.00 | 0.00 | 72 | 1010.3 |
| 20260508014329 | 41 | 360 | 0.0 | 5.0 | 0.00 | 0.00 | 0.00 | 71 | 1010.3 |
| 20260508013829 | 41 | 360 | 0.0 | 5.0 | 0.00 | 0.00 | 0.00 | 72 | 1010.3 |
| 20260508013329 | 42 | 360 | 0.0 | 5.0 | 0.00 | 0.00 | 0.00 | 71 | 1010.4 |
| 20260508012829 | 42 | 360 | 0.0 | 5.0 | 0.00 | 0.00 | 0.00 | 70 | 1010.3 |
| 20260508012329 | 42 | 360 | 0.0 | 5.0 | 0.00 | 0.00 | 0.00 | 69 | 1010.3 |
| 20260508011829 | 42 | 360 | 0.0 | 5.0 | 0.00 | 0.00 | 0.00 | 68 | 1010.3 |
| 20260508011329 | 43 | 360 | 0.0 | 5.0 | 0.00 | 0.00 | 0.00 | 68 | 1010.2 |
| 20260508010829 | 43 | 360 | 0.0 | 5.0 | 0.00 | 0.00 | 0.00 | 68 | 1010.2 |
| 20260508010329 | 43 | 360 | 0.0 | 5.0 | 0.00 | 0.00 | 0.00 | 67 | 1010.2 |
| 20260508005829 | 43 | 360 | 0.0 | 5.0 | 0.00 | 0.00 | 0.00 | 65 | 1010.2 |
| 20260508005329 | 43 | 360 | 0.0 | 5.0 | 0.00 | 0.00 | 0.00 | 65 | 1010.1 |
| 20260508004829 | 44 | 360 | 0.0 | 5.0 | 0.00 | 0.00 | 0.00 | 62 | 1010.2 |
| 20260508004329 | 44 | 360 | 0.0 | 5.0 | 0.00 | 0.00 | 0.00 | 62 | 1010.2 |
| 20260508003329 | 44 | 360 | 0.0 | 5.0 | 0.00 | 0.00 | 0.00 | 64 | 1010.2 |
| 20260508002829 | 44 | 360 | 0.0 | 5.0 | 0.00 | 0.00 | 0.00 | 64 | 1010.1 |
| 20260508002329 | 44 | 360 | 0.0 | 5.0 | 0.00 | 0.00 | 0.00 | 63 | 1010.1 |
| 20260508001829 | 44 | 360 | 0.0 | 5.0 | 0.00 | 0.00 | 0.00 | 63 | 1010.0 |
| 20260508001329 | 44 | 360 | 0.0 | 5.0 | 0.00 | 0.00 | 0.00 | 61 | 1010.0 |
| 20260508000329 | 45 | 360 | 0.0 | 5.0 | 0.00 | 0.00 | 0.00 | 61 | 1009.9 |
| 20260507235829 | 45 | 259 | 0.0 | 5.0 | 0.00 | 0.00 | 0.00 | 62 | 1010.0 |
| 20260507234829 | 45 | 360 | 0.0 | 5.0 | 0.00 | 0.00 | 0.00 | 59 | 1009.8 |
| 20260507234329 | 45 | 360 | 0.0 | 5.0 | 0.00 | 0.00 | 0.00 | 58 | 1009.9 |
| 20260507233829 | 45 | 360 | 2.0 | 5.0 | 0.00 | 0.00 | 0.00 | 57 | 1010.0 |
| 20260507233329 | 46 | 360 | 0.0 | 5.0 | 0.00 | 0.00 | 0.00 | 56 | 1010.0 |
| 20260507232829 | 46 | 360 | 0.0 | 5.0 | 0.00 | 0.00 | 0.00 | 55 | 1009.9 |
| 20260507232329 | 46 | 360 | 0.0 | 5.0 | 0.00 | 0.00 | 0.00 | 56 | 1010.0 |
| 20260507231829 | 46 | 360 | 6.0 | 5.0 | 0.00 | 0.00 | 0.00 | 54 | 1010.0 |